Weather History for Palmer, AK

Change the Weather History Date:

Tuesday, October 4, 2011

  Actual Average Record
Temperature  
Mean Temperature 39 °F -  
Max Temperature 45 °F 48 °F 60 °F (2001)
Min Temperature 33 °F 31 °F 18 °F (1970)
Degree Days  
Heating Degree Days 26    
Moisture  
Dew Point 34 °F    
Average Humidity 83    
Maximum Humidity 92    
Minimum Humidity 68    
Precipitation  
Precipitation 0.00 in - - ()
Sea Level Pressure  
Sea Level Pressure 29.53 in    
Wind  
Wind Speed 4 mph (North)    
Max Wind Speed 9 mph    
Max Gust Speed -    
Visibility 10 miles    
Events      
Averages and records for this station are not official NWS values.
T = Trace of Precipitation, MM = Missing Value Source: NWS Daily Summary

Daily Weather History Graph

Daily Weather History Graph

Search for Another Location

Airport:

Trip Planner

Search our weather history database for the weather conditions in past years. The results will help you decide how hot, cold, wet, or windy it might be!

Date:

Astronomy

Oct. 04, 2011 Rise Set
Actual Time 8:10 AM AKDT 7:18 PM AKDT
Civil Twilight 7:27 AM AKDT 8:01 PM AKDT
Nautical Twilight 6:35 AM AKDT 8:52 PM AKDT
Astronomical Twilight 5:42 AM AKDT 9:45 PM AKDT
Moon 5:14 PM AKDT (10/4) No Moon Set
Length of Visible Light 12h 34m
Length of Day
11h 07m
First Quarter, 57% of the Moon is Illuminated
Oct 4
First Quarter
Oct 11
Full
Oct 19
Last Quarter
Oct 26
New
Nov 2
First Quarter

Hourly Weather History & Observations

Time (AKDT) Temp. Windchill Dew Point Humidity Pressure Visibility Wind Dir Wind Speed Gust Speed Precip Events Conditions
12:53 AM 37.0 °F 32.4 °F 34.0 °F 89% 29.49 in 10.0 mi North 5.8 mph - N/A   Overcast
1:53 AM 37.0 °F 32.4 °F 34.0 °F 89% 29.49 in 10.0 mi North 5.8 mph - N/A   Overcast
2:53 AM 36.0 °F 32.1 °F 33.1 °F 89% 29.50 in 10.0 mi NNW 4.6 mph - N/A   Scattered Clouds
3:53 AM 35.1 °F 28.6 °F 32.0 °F 89% 29.51 in 10.0 mi North 8.1 mph - N/A   Scattered Clouds
4:53 AM 36.0 °F 32.1 °F 33.1 °F 89% 29.51 in 10.0 mi NNW 4.6 mph - N/A   Overcast
5:53 AM 35.1 °F 27.9 °F 32.0 °F 89% 29.51 in 10.0 mi NNW 9.2 mph - N/A   Scattered Clouds
6:53 AM 34.0 °F 28.0 °F 30.9 °F 89% 29.52 in 10.0 mi North 6.9 mph - N/A   Partly Cloudy
7:53 AM 33.1 °F 26.9 °F 30.9 °F 92% 29.52 in 10.0 mi NNW 6.9 mph - N/A   Mostly Cloudy
8:53 AM 33.1 °F 27.7 °F 30.9 °F 92% 29.52 in 10.0 mi North 5.8 mph - N/A   Scattered Clouds
9:53 AM 37.9 °F - 34.0 °F 86% 29.52 in 10.0 mi Calm Calm - N/A   Mostly Cloudy
10:53 AM 37.9 °F - 34.0 °F 86% 29.53 in 10.0 mi Calm Calm - N/A   Mostly Cloudy
11:53 AM 39.9 °F - 36.0 °F 86% 29.53 in 10.0 mi Calm Calm - N/A   Mostly Cloudy
12:53 PM 42.1 °F - 36.0 °F 79% 29.54 in 10.0 mi Calm Calm - N/A   Overcast
1:53 PM 42.1 °F - 36.0 °F 79% 29.55 in 10.0 mi Calm Calm - N/A   Overcast
2:53 PM 43.0 °F - 34.0 °F 71% 29.54 in 10.0 mi Calm Calm - N/A   Mostly Cloudy
3:53 PM 43.0 °F 41.3 °F 35.1 °F 74% 29.54 in 10.0 mi South 3.5 mph - N/A   Mostly Cloudy
4:53 PM 45.0 °F - 35.1 °F 68% 29.54 in 10.0 mi Calm Calm - N/A   Mostly Cloudy
5:53 PM 44.1 °F - 35.1 °F 71% 29.54 in 10.0 mi Calm Calm - N/A   Mostly Cloudy
6:53 PM 43.0 °F - 36.0 °F 76% 29.54 in 10.0 mi Calm Calm - N/A   Mostly Cloudy
7:53 PM 42.1 °F 38.4 °F 36.0 °F 79% 29.54 in 10.0 mi ESE 5.8 mph - N/A   Overcast
8:53 PM 39.9 °F 37.8 °F 35.1 °F 83% 29.55 in 10.0 mi East 3.5 mph - N/A   Partly Cloudy
9:53 PM 39.9 °F - 35.1 °F 83% 29.56 in 10.0 mi Calm Calm - N/A   Overcast
10:53 PM 37.0 °F 32.4 °F 33.1 °F 86% 29.57 in 10.0 mi North 5.8 mph - N/A   Overcast
11:53 PM 36.0 °F 31.1 °F 32.0 °F 86% 29.58 in 10.0 mi North 5.8 mph - N/A   Overcast